Starlink 37263

operational
NORAD ID: 68545 Int'l Des: 2026-070 Owner: SPXS Country: US Constellation: starlink
LEOCIRCULAR

关于 Starlink 37263

正在加载描述...

实时位置

正在加载3D地球...

即将过境

高度历史

Altitude vs Time

uPlot chart will show altitude changes over time

两行轨道根数

1 68545C 26070C 26093.93312500 -.00302670 00000+0 -37240-3 0 939
2 68545 53.1618 259.4258 0007783 286.7829 118.3454 16.07268717 18
Epoch: Apr 3, 2026 • Age: 32 hours

当前状态

高度 259.1 km
速度 7.75 km/s
星下点 -15.28°S, 136.61°E
发射日期 Apr 2, 2026
运行时间 1 days
类型 internet

技术详情

分类 Payload
质量 575.00 kg
干质量 530.00 kg
总质量 575.00 kg
长度 0.30 m
直径 4.10 m
跨度 29.00 m
形状 Box + pan
制造商 SPXS
平台类型 Starlink V2MO
阶段状态 In Orbit
所有者/国家 SPXS/US

大型星座

Loading constellations...